• Em Portugal
  • Lista de países
  • Para 7 dias
  • Temperatura da água
  • Mapas de satélite
  • Mapa do tempo
  • Widgets de tempo
  • user-avatar
    Iniciar Sessão

    Previsão horária em Smecino

    Hoje, 21 Outubro, Domingo

    Tempo Temperatura Precipitação Vento Pressão Humidade
    00:00 +7°C° 0 mm 2 m/s 757 mmHg 93%
    01:00 +7°C° 0 mm 2 m/s 757 mmHg 94%
    02:00 +8°C° 0 mm 1 m/s 757 mmHg 94%
    03:00 +8°C° 0 mm 1 m/s 757 mmHg 94%
    04:00 +8°C° 0 mm 1 m/s 757 mmHg 94%
    05:00 +8°C° 0 mm 1 m/s 758 mmHg 95%
    06:00 +7°C° 0 mm 1 m/s 758 mmHg 95%
    07:00 +7°C° 0 mm 1 m/s 759 mmHg 95%
    08:00 +9°C° 0 mm 1 m/s 759 mmHg 88%
    09:00 +9°C° 0 mm 2 m/s 759 mmHg 82%
    10:00 +12°C° 0 mm 2 m/s 759 mmHg 76%
    11:00 +13°C° 0 mm 2 m/s 759 mmHg 71%
    12:00 +13°C° 0 mm 2 m/s 759 mmHg 67%
    13:00 +13°C° 0 mm 3 m/s 759 mmHg 62%
    14:00 +13°C° 0 mm 3 m/s 759 mmHg 64%
    15:00 +13°C° 0 mm 2 m/s 758 mmHg 66%
    16:00 +13°C° 0 mm 2 m/s 758 mmHg 68%
    17:00 +12°C° 0 mm 2 m/s 758 mmHg 73%
    18:00 +10°C° 0 mm 2 m/s 758 mmHg 77%
    19:00 +9°C° 0 mm 3 m/s 758 mmHg 81%
    20:00 +8°C° 0 mm 3 m/s 758 mmHg 82%
    21:00 +8°C° 0 mm 3 m/s 757 mmHg 83%
    22:00 +8°C° 0 mm 3 m/s 757 mmHg 83%
    23:00 +8°C° 0 mm 3 m/s 757 mmHg 84%

    Amanhã, 22 Outubro, Segunda-feira

    Tempo Temperatura Precipitação Vento Pressão Humidade
    00:00 +6°C° 0 mm 4 m/s 757 mmHg 84%
    01:00 +6°C° 0 mm 4 m/s 757 mmHg 84%
    02:00 +6°C° 0 mm 4 m/s 756 mmHg 84%
    03:00 +6°C° 0 mm 4 m/s 756 mmHg 85%
    04:00 +6°C° 0 mm 4 m/s 755 mmHg 85%
    05:00 +6°C° 0.1 mm 4 m/s 755 mmHg 85%
    06:00 +6°C° 0.1 mm 4 m/s 755 mmHg 85%
    07:00 +7°C° 0.1 mm 5 m/s 755 mmHg 85%
    08:00 +7°C° 0.4 mm 5 m/s 755 mmHg 86%
    09:00 +8°C° 0.4 mm 5 m/s 755 mmHg 86%
    10:00 +8°C° 0.4 mm 5 m/s 755 mmHg 86%
    11:00 +8°C° 0.6 mm 5 m/s 755 mmHg 85%
    12:00 +8°C° 0.6 mm 5 m/s 755 mmHg 84%
    13:00 +8°C° 0.6 mm 5 m/s 756 mmHg 84%
    14:00 +8°C° 0.1 mm 5 m/s 756 mmHg 79%
    15:00 +8°C° 0.1 mm 5 m/s 756 mmHg 74%
    16:00 +9°C° 0.1 mm 5 m/s 756 mmHg 69%
    17:00 +8°C° 0 mm 5 m/s 756 mmHg 71%
    18:00 +7°C° 0 mm 4 m/s 756 mmHg 72%
    19:00 +6°C° 0 mm 4 m/s 756 mmHg 74%
    20:00 +6°C° 0 mm 4 m/s 756 mmHg 76%
    21:00 +6°C° 0 mm 4 m/s 756 mmHg 78%
    22:00 +5°C° 0 mm 4 m/s 756 mmHg 80%
    23:00 +5°C° 0.1 mm 4 m/s 756 mmHg 81%

    Depois de amanhã, 23 Outubro, Terça-feira

    Tempo Temperatura Precipitação Vento Pressão Humidade
    00:00 +5°C° 0.1 mm 4 m/s 756 mmHg 81%
    01:00 +5°C° 0.1 mm 5 m/s 755 mmHg 81%
    02:00 +5°C° 0.1 mm 5 m/s 754 mmHg 81%
    03:00 +4°C° 0.1 mm 6 m/s 753 mmHg 82%
    04:00 +4°C° 0.1 mm 6 m/s 752 mmHg 82%
    05:00 +4°C° 0.5 mm 7 m/s 751 mmHg 83%
    06:00 +4°C° 0.5 mm 8 m/s 750 mmHg 83%
    07:00 +3°C° 0.5 mm 9 m/s 749 mmHg 84%
    08:00 +3°C° 1 mm 9 m/s 747 mmHg 84%
    09:00 +5°C° 1 mm 10 m/s 746 mmHg 84%
    10:00 +6°C° 1 mm 10 m/s 745 mmHg 84%
    11:00 +6°C° 2.2 mm 11 m/s 744 mmHg 85%
    12:00 +7°C° 2.2 mm 11 m/s 742 mmHg 86%
    13:00 +8°C° 2.2 mm 11 m/s 741 mmHg 87%
    14:00 +8°C° 2.4 mm 11 m/s 740 mmHg 87%
    15:00 +9°C° 2.4 mm 11 m/s 739 mmHg 86%
    16:00 +9°C° 2.4 mm 11 m/s 738 mmHg 85%
    17:00 +9°C° 1.4 mm 11 m/s 737 mmHg 84%
    18:00 +9°C° 1.4 mm 11 m/s 737 mmHg 83%
    19:00 +9°C° 1.4 mm 11 m/s 736 mmHg 82%
    20:00 +9°C° 0.6 mm 11 m/s 736 mmHg 78%
    21:00 +8°C° 0.6 mm 11 m/s 736 mmHg 74%
    22:00 +8°C° 0.6 mm 10 m/s 736 mmHg 71%
    23:00 +7°C° 0.2 mm 10 m/s 737 mmHg 69%

    24 Outubro, Quarta-feira

    Tempo Temperatura Precipitação Vento Pressão Humidade
    00:00 +6°C° 0.2 mm 10 m/s 737 mmHg 68%
    01:00 +6°C° 0.2 mm 10 m/s 738 mmHg 67%
    02:00 +5°C° 0.1 mm 10 m/s 739 mmHg 63%
    03:00 +3°C° 0.1 mm 9 m/s 739 mmHg 60%
    04:00 +3°C° 0.1 mm 9 m/s 740 mmHg 56%
    05:00 +3°C° 0 mm 9 m/s 741 mmHg 57%
    06:00 +2°C° 0 mm 9 m/s 741 mmHg 57%
    07:00 +2°C° 0 mm 8 m/s 742 mmHg 58%
    08:00 +3°C° 0 mm 9 m/s 743 mmHg 56%
    09:00 +5°C° 0 mm 9 m/s 744 mmHg 55%
    10:00 +5°C° 0 mm 10 m/s 744 mmHg 53%
    11:00 +6°C° 0 mm 10 m/s 745 mmHg 52%
    12:00 +6°C° 0 mm 10 m/s 745 mmHg 50%
    13:00 +6°C° 0 mm 10 m/s 746 mmHg 49%
    14:00 +6°C° 0 mm 9 m/s 746 mmHg 50%
    15:00 +5°C° 0 mm 8 m/s 746 mmHg 52%
    16:00 +5°C° 0 mm 7 m/s 747 mmHg 53%
    17:00 +5°C° 0 mm 6 m/s 747 mmHg 55%
    18:00 +4°C° 0 mm 6 m/s 747 mmHg 57%
    19:00 +5°C° 0 mm 5 m/s 748 mmHg 59%
    20:00 +5°C° 0 mm 5 m/s 748 mmHg 62%
    21:00 +4°C° 0 mm 4 m/s 748 mmHg 64%
    22:00 +4°C° 0 mm 4 m/s 747 mmHg 67%
    23:00 +4°C° 0 mm 4 m/s 747 mmHg 71%

    25 Outubro, Quinta-feira

    Tempo Temperatura Precipitação Vento Pressão Humidade
    00:00 +5°C° 0 mm 4 m/s 747 mmHg 74%
    01:00 +5°C° 0 mm 5 m/s 746 mmHg 78%
    02:00 +6°C° 0.4 mm 5 m/s 746 mmHg 82%
    03:00 +7°C° 0.4 mm 6 m/s 745 mmHg 86%
    04:00 +8°C° 0.4 mm 7 m/s 744 mmHg 91%
    05:00 +9°C° 0.5 mm 8 m/s 744 mmHg 89%
    06:00 +9°C° 0.5 mm 8 m/s 743 mmHg 88%
    07:00 +10°C° 0.5 mm 9 m/s 743 mmHg 86%
    08:00 +10°C° 0.3 mm 9 m/s 743 mmHg 84%
    09:00 +10°C° 0.3 mm 9 m/s 743 mmHg 82%
    10:00 +10°C° 0.3 mm 9 m/s 743 mmHg 80%
    11:00 +10°C° 0.2 mm 9 m/s 743 mmHg 78%
    12:00 +10°C° 0.2 mm 9 m/s 742 mmHg 75%
    13:00 +11°C° 0.2 mm 10 m/s 742 mmHg 73%
    14:00 +10°C° 0.1 mm 9 m/s 742 mmHg 73%
    15:00 +10°C° 0.1 mm 9 m/s 743 mmHg 72%
    16:00 +10°C° 0.1 mm 9 m/s 743 mmHg 72%
    17:00 +9°C° 0.1 mm 8 m/s 743 mmHg 73%
    18:00 +9°C° 0.1 mm 7 m/s 743 mmHg 74%
    19:00 +9°C° 0.1 mm 6 m/s 743 mmHg 75%
    20:00 +8°C° 0.1 mm 6 m/s 743 mmHg 77%
    21:00 +8°C° 0.1 mm 5 m/s 743 mmHg 79%
    22:00 +8°C° 0.1 mm 5 m/s 743 mmHg 81%
    23:00 +8°C° 0 mm 5 m/s 743 mmHg 81%

    26 Outubro, Sexta-feira

    Tempo Temperatura Precipitação Vento Pressão Humidade
    00:00 +7°C° 0 mm 5 m/s 743 mmHg 82%
    01:00 +7°C° 0 mm 4 m/s 743 mmHg 83%
    02:00 +7°C° 0 mm 4 m/s 743 mmHg 83%
    03:00 +7°C° 0 mm 4 m/s 743 mmHg 84%
    04:00 +7°C° 0 mm 4 m/s 743 mmHg 84%
    05:00 +7°C° 0 mm 4 m/s 743 mmHg 86%
    06:00 +7°C° 0 mm 4 m/s 743 mmHg 88%
    07:00 +9°C° 0 mm 3 m/s 743 mmHg 89%
    08:00 +8°C° 0.1 mm 4 m/s 743 mmHg 89%
    09:00 +8°C° 0.1 mm 4 m/s 743 mmHg 89%
    10:00 +8°C° 0.1 mm 5 m/s 742 mmHg 88%
    11:00 +8°C° 0.1 mm 5 m/s 742 mmHg 87%
    12:00 +8°C° 0.1 mm 5 m/s 742 mmHg 85%
    13:00 +8°C° 0.1 mm 6 m/s 741 mmHg 83%
    14:00 +8°C° 0 mm 6 m/s 741 mmHg 81%
    15:00 +8°C° 0 mm 6 m/s 740 mmHg 80%
    16:00 +8°C° 0 mm 6 m/s 740 mmHg 78%
    17:00 +7°C° 0.1 mm 6 m/s 740 mmHg 80%
    18:00 +7°C° 0.1 mm 6 m/s 739 mmHg 82%
    19:00 +7°C° 0.1 mm 6 m/s 739 mmHg 83%
    20:00 +7°C° 0 mm 6 m/s 738 mmHg 84%
    21:00 +7°C° 0 mm 6 m/s 738 mmHg 84%
    22:00 +7°C° 0 mm 6 m/s 738 mmHg 85%
    23:00 +7°C° 0.1 mm 6 m/s 737 mmHg 86%
    Mostrar mais